Russellville, AR

10:07 AM CDT on October 20, 2019 (GMT -0500)
Russellville Regional

Weather History for KRUE - August, 2019

Change the Weather History Date:

Thursday, August 15, 2019

  Actual Average (WUND) Record (WUND)
Temperature  
Mean Temperature 82 °F -  
Max Temperature 93 °F - - (-1)
Min Temperature 70 °F - - (-1)
Cooling Degree Days 16    
Growing Degree Days 32 (Base 50)    
Moisture  
Dew Point 69 °F    
Average Humidity 68    
Maximum Humidity 93    
Minimum Humidity 41    
Precipitation  
Precipitation 0.00 in - - ()
Sea Level Pressure  
Sea Level Pressure 29.98 in    
Wind  
Wind Speed 1 mph (SE)    
Max Wind Speed 7 mph    
Max Gust Speed -    
Visibility 10 miles    
Events      
Averages and records for this station are not official NWS values.
T = Trace of Precipitation, MM = Missing Value Source: NWS Daily Summary

Daily Weather History Graph

Daily Weather History Graph

Search for Another Location

Airport or City:

Astronomy

Aug. 15, 2019 Rise Set
Actual Time 6:31 AM CDT 8:01 PM CDT
Civil Twilight 6:04 AM CDT 8:28 PM CDT
Nautical Twilight 5:32 AM CDT 9:00 PM CDT
Astronomical Twilight 4:58 AM CDT 9:34 PM CDT
Moon 8:29 PM CDT (8/15) 6:28 AM CDT (8/15)
Length of Visible Light 14h 23m
Length of Day
13h 29m
Full, 100% of the Moon is Illuminated
Aug 15
Full
Aug 23
Last Quarter
Aug 30
New
Sep 5
First Quarter
Sep 13
Full

Hourly Weather History & Observations

Time (CDT) Temp. Heat Index Dew Point Humidity Pressure Visibility Wind Dir Wind Speed Gust Speed Precip Events Conditions
12:53 AM 77.0 °F - 70.0 °F 79% 30.01 in 10.0 mi Calm Calm - N/A   Clear
1:53 AM 73.9 °F - 70.0 °F 87% 29.99 in 10.0 mi Calm Calm - N/A   Clear
2:53 AM 73.0 °F - 70.0 °F 90% 29.99 in 10.0 mi South 3.5 mph - N/A   Clear
4:53 AM 71.1 °F - 69.1 °F 93% 29.98 in 9.0 mi Calm Calm - N/A   Clear
5:53 AM 72.0 °F - 68.0 °F 87% 29.99 in 10.0 mi Calm Calm - N/A   Clear
6:53 AM 70.0 °F - 68.0 °F 93% 30.01 in 10.0 mi Calm Calm - N/A   Clear
7:53 AM 73.9 °F - 70.0 °F 87% 30.03 in 10.0 mi Calm Calm - N/A   Clear
8:53 AM 78.1 °F - 70.0 °F 76% 30.03 in 10.0 mi Calm Calm - N/A   Clear
9:53 AM 82.0 °F 85.9 °F 70.0 °F 67% 30.03 in 10.0 mi Calm Calm - N/A   Clear
10:53 AM 84.9 °F 88.8 °F 69.1 °F 59% 30.03 in 10.0 mi SSE 3.5 mph - N/A   Clear
11:53 AM 88.0 °F 92.1 °F 69.1 °F 53% 30.01 in 10.0 mi East 5.8 mph - N/A   Clear
12:53 PM 89.1 °F 95.0 °F 71.1 °F 55% 30.00 in 10.0 mi Variable 5.8 mph - N/A   Clear
1:53 PM 91.0 °F 96.6 °F 70.0 °F 50% 29.99 in 10.0 mi North - - N/A   Clear
2:53 PM 93.0 °F 97.9 °F 69.1 °F 45% 29.97 in 10.0 mi NNE 6.9 mph - N/A   Clear
3:53 PM 93.0 °F 95.9 °F 66.0 °F 41% 29.94 in 10.0 mi Calm Calm - N/A   Clear
4:53 PM 91.9 °F 97.4 °F 70.0 °F 48% 29.94 in 10.0 mi Variable 5.8 mph - N/A   Clear
5:53 PM 88.0 °F 92.1 °F 69.1 °F 53% 29.91 in 10.0 mi SE 3.5 mph - N/A   Clear
6:53 PM 89.1 °F 93.7 °F 69.1 °F 52% 29.92 in 10.0 mi Calm Calm - N/A   Clear
7:53 PM 82.0 °F 86.7 °F 72.0 °F 71% 29.93 in 10.0 mi Calm Calm - N/A   Clear